CDT,Max TemperatureF,Mean TemperatureF,Min TemperatureF,Max Dew PointF,MeanDew PointF,Min DewpointF,Max Humidity, Mean Humidity, Min Humidity, Max Sea Level PressureIn, Mean Sea Level PressureIn, Min Sea Level PressureIn, Max VisibilityMiles, Mean VisibilityMiles, Min VisibilityMiles, Max Wind SpeedMPH, Mean Wind SpeedMPH, Max Gust SpeedMPH,PrecipitationIn, CloudCover, Events, WindDirDegrees
2013-10-1,81,69,57,68,62,58,100,80,51,30.13,30.08,30.04,10,10,5,10,2,,0.00,5,,221
2013-10-2,75,69,63,72,67,63,100,94,75,30.16,30.11,30.08,10,8,1,9,2,,0.07,7,Rain,237
2013-10-3,81,74,66,71,68,65,100,89,57,30.13,30.08,30.03,10,8,2,8,1,,0.23,5,Rain-Thunderstorm,138
2013-10-4,82,72,63,69,66,63,100,80,59,30.14,30.09,30.06,10,10,3,7,1,,0.00,3,,177
2013-10-5,86,76,66,69,66,65,100,73,50,30.09,30.03,29.93,10,10,7,13,3,20,0.00,3,,188
2013-10-6,73,63,53,70,61,49,100,91,72,29.95,29.88,29.83,10,8,2,13,6,17,0.77,6,Rain-Thunderstorm,206
2013-10-7,66,54,43,53,46,42,100,79,42,30.15,30.03,29.94,10,8,0,8,2,,0.01,3,Fog,314
2013-10-8,70,57,44,48,46,42,100,73,36,30.21,30.17,30.13,10,10,10,15,3,22,0.00,0,,55
2013-10-9,77,62,46,60,53,46,100,80,48,30.21,30.16,30.13,10,10,5,6,0,,0.00,2,,346
2013-10-10,77,64,50,59,54,50,100,79,41,30.18,30.13,30.07,10,8,0,8,1,,0.00,2,Fog,14
2013-10-11,78,62,45,56,49,37,100,74,23,30.12,30.07,30.03,10,8,1,5,0,,0.00,0,,262
2013-10-12,79,63,47,60,54,48,100,78,39,30.14,30.09,30.05,10,8,1,5,0,,0.00,1,,277
2013-10-13,79,66,54,61,57,50,100,76,46,30.27,30.22,30.14,10,8,2,7,2,,0.00,3,,10
2013-10-14,68,60,52,60,54,48,100,85,67,30.28,30.22,30.14,10,7,1,9,2,,0.00,2,,69
2013-10-15,73,64,54,62,59,55,100,82,61,30.14,30.06,29.99,10,8,1,9,2,,0.00,2,Rain,206
2013-10-16,65,61,57,64,60,57,100,92,78,30.01,29.98,29.95,10,7,2,7,4,,0.00,8,Rain,217
2013-10-17,62,53,43,57,50,43,100,90,60,30.03,29.97,29.91,10,7,1,10,2,,0.02,6,Rain,320
2013-10-18,65,52,38,51,45,38,100,80,44,30.10,30.03,29.98,10,7,0,7,1,,0.02,3,Fog,238
2013-10-19,53,45,36,52,44,37,100,87,67,30.08,29.98,29.89,10,9,0,10,2,20,0.08,5,Fog-Rain,257
2013-10-20,62,48,33,44,38,34,100,80,39,30.12,30.07,30.03,10,8,1,8,1,,0.01,0,,211
2013-10-21,68,52,36,46,41,36,100,70,33,30.09,30.02,29.96,10,10,5,12,2,18,0.00,2,,216
2013-10-22,58,50,43,51,41,33,100,75,39,30.08,29.98,29.84,10,9,4,9,3,,0.10,4,Rain,359
2013-10-23,49,41,33,47,35,29,100,75,48,30.12,30.00,29.83,10,10,7,13,7,25,0.01,7,Rain,290
2013-10-24,51,40,28,40,33,25,100,78,47,30.35,30.20,30.11,10,10,10,13,2,16,0.00,6,,293
2013-10-25,48,36,24,31,27,24,100,77,39,30.50,30.41,30.33,10,10,7,7,1,,0.00,1,,337
2013-10-26,55,40,26,38,31,26,100,70,37,30.33,30.18,30.04,10,10,7,18,3,23,0.00,4,,223
2013-10-27,64,50,36,54,44,36,100,79,54,30.12,30.08,30.05,10,9,2,8,1,,0.00,6,Rain,247
2013-10-28,59,54,49,59,55,49,100,99,88,30.28,30.19,30.10,10,4,0,4,0,,0.13,8,Fog-Rain,175
2013-10-29,65,58,50,59,56,50,100,86,67,30.33,30.24,30.17,10,6,0,7,1,,0.07,7,Fog-Rain,132
2013-10-30,76,68,60,63,59,53,100,78,52,30.21,30.14,30.07,10,10,4,14,7,20,0.16,5,Rain,213
2013-10-31,70,66,62,66,59,53,100,79,63,30.07,29.79,29.54,10,9,2,31,10,48,0.56,7,Rain,191